TimeMDT,TemperatureF,Dew PointF,Humidity,Sea Level PressureIn,VisibilityMPH,Wind Direction,Wind SpeedMPH,Gust SpeedMPH,PrecipitationIn,Events,Conditions,WindDirDegrees,DateUTC
12:53 AM,59.0,54.0,83,29.79,10.0,SW,5.8,-,N/A,,Clear,220,2013-05-17 06:53:00
1:20 AM,59.0,53.6,82,29.91,10.0,West,4.6,-,N/A,Thunderstorm,Mostly Cloudy,270,2013-05-17 07:20:00
1:53 AM,61.0,55.0,81,29.78,10.0,SE,4.6,-,N/A,Thunderstorm,Partly Cloudy,140,2013-05-17 07:53:00
2:00 AM,60.8,55.4,82,29.91,10.0,East,3.5,-,N/A,,Partly Cloudy,100,2013-05-17 08:00:00
2:53 AM,59.0,55.0,87,29.77,10.0,South,10.4,-,N/A,,Clear,190,2013-05-17 08:53:00
3:53 AM,60.1,55.9,86,29.77,10.0,South,13.8,-,N/A,,Clear,180,2013-05-17 09:53:00
4:53 AM,59.0,55.9,90,29.82,10.0,SSW,9.2,-,N/A,,Clear,200,2013-05-17 10:53:00
5:53 AM,57.2,55.4,94,29.90,10.0,SSW,12.7,-,N/A,,Clear,200,2013-05-17 11:53:00
6:53 AM,62.1,57.0,84,29.81,10.0,SSW,16.1,-,N/A,,Clear,200,2013-05-17 12:53:00
7:53 AM,63.0,57.9,84,29.82,10.0,SW,18.4,24.2,N/A,,Clear,230,2013-05-17 13:53:00
8:53 AM,66.9,59.0,76,29.81,10.0,SSW,17.3,25.3,N/A,,Clear,210,2013-05-17 14:53:00
9:53 AM,72.0,57.0,59,29.79,10.0,South,18.4,23.0,N/A,,Clear,190,2013-05-17 15:53:00
10:53 AM,77.0,55.9,48,29.78,10.0,South,18.4,-,N/A,,Clear,170,2013-05-17 16:53:00
11:53 AM,79.0,55.9,45,29.76,10.0,South,20.7,27.6,N/A,,Clear,170,2013-05-17 17:53:00
12:53 PM,82.4,55.4,39,29.86,10.0,SSE,18.4,25.3,N/A,,Clear,150,2013-05-17 18:53:00
1:53 PM,84.9,55.0,36,29.71,10.0,SSE,20.7,29.9,N/A,,Clear,150,2013-05-17 19:53:00
2:53 PM,84.9,51.1,31,29.71,10.0,SSE,26.5,35.7,N/A,,Clear,160,2013-05-17 20:53:00
3:53 PM,84.9,52.0,32,29.68,10.0,SSE,24.2,32.2,N/A,,Clear,150,2013-05-17 21:53:00
4:53 PM,84.0,55.0,37,29.68,10.0,SSE,25.3,35.7,N/A,,Clear,150,2013-05-17 22:53:00
5:53 PM,82.9,55.9,39,29.68,10.0,SSE,23.0,29.9,N/A,,Clear,150,2013-05-17 23:53:00
6:53 PM,78.1,57.9,50,29.66,10.0,SE,18.4,28.8,N/A,,Clear,140,2013-05-18 00:53:00
7:53 PM,73.0,60.1,64,29.67,10.0,SSE,21.9,32.2,N/A,,Clear,150,2013-05-18 01:53:00
8:53 PM,69.1,61.0,75,29.70,10.0,SSE,18.4,31.1,N/A,,Clear,150,2013-05-18 02:53:00
9:26 PM,68.0,62.6,83,29.82,10.0,SSE,25.3,33.4,N/A,,Mostly Cloudy,150,2013-05-18 03:26:00
9:53 PM,68.0,62.1,81,29.71,10.0,SSE,24.2,32.2,N/A,,Overcast,150,2013-05-18 03:53:00
10:53 PM,66.9,62.1,84,29.72,10.0,South,19.6,-,N/A,,Overcast,170,2013-05-18 04:53:00
11:53 PM,64.9,62.1,90,29.72,10.0,SSE,20.7,-,N/A,,Overcast,160,2013-05-18 05:53:00